User: anonymous   Login
Location: Mactaquac Provincial Park
(45.9573°N, 66.8897°W)
Time: 17:16:13
(UTC-03:00)
Language:

Cosmos 1766 - Orbit

View from above orbital plane
View from above orbital plane
View from above satellite
View from above satellite

Ground track
Ground track

The orbit data is extracted from the following two-line orbital elements,

1 16881U 86055A   15210.47860896  .00001027  00000-0  64055-4 0  9999
2 16881 082.5054 336.6978 0014706 295.1462 064.8241 15.08398054577545
Epoch (UTC): 29 July 2015 11:29:11
Eccentricity: 0.0014706
inclination: 82.5054°
perigee height: 531 km
apogee height: 551 km
right ascension of ascending node: 336.6978°
argument of perigee: 295.1462°
revolutions per day: 15.08398054
mean anomaly at epoch: 64.8241°
orbit number at epoch: 57754

The dashed part of the orbit path shows where the satellite is in the earth's shadow,  

DLR